Location: �A�n Sefra
(34.9681°N, 0.4346°E)
Time: 12:32:52
(UTC+00:00)

Cosmos 2369 Rocket - Pass Details

Date: 21 October 2019
Orbit: 830 x 851 km, 71.0° (Epoch: 20 November)

Event Time Altitude Azimuth Distance (km) Brightness Sun altitude
Rises 19:27:47 0° 187° (S) 3,389 5.4 -27.6°
Reaches altitude 10° 19:30:17 10° 182° (S) 2,455 4.6 -28.1°
Enters shadow 19:30:26 11° 182° (S) 2,397 4.5 -28.1°
